星链-11275 (STARLINK-11275)

导读 | 星芒AI

STARLINK-11275 是 SpaceX Starlink 项目中的一颗低轨通信卫星,属于第 5 批 Starlink 卫星群组。该卫星于 2020 年 11 月 19 日由猎鹰 9 号火箭从卡纳维拉尔角发射升空。它运行在约 550 公里的高度,设计用于提供全球宽带互联网服务。STARLINK-11275 采用先进的星间激光通信技术,提高数据传输效率,并具备自动避障功能,以减少与其他卫星或太空碎片的碰撞风险。该卫星是 SpaceX 构建全球卫星互联网网络的重要组成部分。

基本信息
目录编号:
61579
目录名称:
STARLINK-11275
国际标识:
2024-187F
轨道中心:
EARTH
卫星名称:
星链-11275
卫星全名:
星链-11275 (STARLINK-11275)
卫星状态:
在轨 (已飞行376 天)
发射日期:
2024-10-18 UTC
国别 :
美国 (US)
星等 :
--
轨道信息
数据来源 国际轨道数据
星历时间: 2025-10-28T20:15:36+0800
21小时前
查看轨道信息
半长轴: 6737.85km
偏心率: 0.0001207
轨道倾角: 53.158°
近地点辐角 90.731°
升交点赤经 227.587°
平近点角 269.385°
近地点: 358.901km
远地点: 360.529km
周期: 91.736分钟
每日圈数: 15.697151
详细信息
固有亮度:
5
最大亮度:
2.5
卫星平台:
Starlink V1.0
覆盖范围:
全球
运营商:
太空探索技术公司
运营商所在国:
美国
制造商(研发单位):
太空探索技术公司
制造商所在国:
美国
使用方式:
暂无
卫星简介
Starlink 计划是 SpaceX 推出的全球卫星互联网项目,通过发射低轨道卫星,为全球尤其是偏远地区提供高速、低延迟的互联网服务。自 2019 年起,Starlink 已部署数千颗卫星,旨在缩小全球数字鸿沟,推动互联网普及。该项目还为军事、航空等行业提供通信支持,带来广泛经济效益。
2D轨道图
3D轨道图
轨道高度分析图
轨道倾角分析图
轨道综合分析图
查看轨道综合分析图